TimeEST,TemperatureF,Dew PointF,Humidity,Sea Level PressureIn,VisibilityMPH,Wind Direction,Wind SpeedMPH,Gust SpeedMPH,PrecipitationIn,Events,Conditions,WindDirDegrees,DateUTC
12:51 AM,18.0,14.0,84,30.20,4.0,West,9.2,-,N/A,Snow,Light Snow,260,2013-02-21 05:51:00
1:37 AM,17.6,14.0,86,30.14,2.0,West,6.9,-,0.00,Snow,Light Snow,260,2013-02-21 06:37:00
1:41 AM,17.6,14.0,86,30.14,3.0,West,6.9,-,0.00,Snow,Light Snow,260,2013-02-21 06:41:00
1:51 AM,18.0,14.0,84,30.20,4.0,West,8.1,-,0.00,Snow,Light Snow,260,2013-02-21 06:51:00
2:26 AM,17.6,14.0,86,30.14,5.0,WSW,9.2,-,0.00,Snow,Light Snow,250,2013-02-21 07:26:00
2:51 AM,18.0,14.0,84,30.21,3.0,West,11.5,-,0.00,Snow,Light Snow,260,2013-02-21 07:51:00
3:51 AM,18.0,14.0,84,30.21,5.0,West,4.6,-,N/A,Snow,Light Snow,280,2013-02-21 08:51:00
4:51 AM,18.0,10.9,74,30.22,9.0,WNW,8.1,-,0.00,Snow,Light Snow,300,2013-02-21 09:51:00
5:30 AM,17.6,10.4,73,30.18,6.0,WNW,6.9,-,0.00,Snow,Light Snow,290,2013-02-21 10:30:00
5:51 AM,18.0,12.0,78,30.25,2.5,WNW,4.6,-,0.00,Snow,Light Snow,300,2013-02-21 10:51:00
6:51 AM,18.0,12.9,81,30.27,2.5,NW,9.2,-,N/A,Snow,Light Snow,320,2013-02-21 11:51:00
7:51 AM,17.1,12.9,84,30.29,2.0,NNW,12.7,-,0.00,Snow,Light Snow,330,2013-02-21 12:51:00
8:19 AM,17.6,10.4,73,30.25,0.8,NW,10.4,-,0.00,Snow,Light Snow,310,2013-02-21 13:19:00
8:34 AM,17.6,10.4,73,30.26,2.0,NW,10.4,-,0.00,Snow,Light Snow,320,2013-02-21 13:34:00
8:51 AM,17.1,10.0,74,30.35,2.5,West,11.5,-,0.00,Snow,Light Snow,280,2013-02-21 13:51:00
9:51 AM,18.0,10.0,71,30.34,2.5,NW,10.4,-,N/A,Snow,Light Snow,320,2013-02-21 14:51:00
10:51 AM,18.0,10.0,71,30.33,2.5,NW,11.5,-,0.00,Snow,Light Snow,310,2013-02-21 15:51:00
11:19 AM,19.4,10.4,68,30.27,2.5,NW,9.2,-,0.00,Snow,Light Snow,320,2013-02-21 16:19:00
11:51 AM,19.0,10.9,71,30.36,2.5,WNW,9.2,-,0.00,Snow,Light Snow,300,2013-02-21 16:51:00
12:16 PM,19.4,10.4,68,30.29,2.5,NNW,10.4,-,0.00,Snow,Light Snow,330,2013-02-21 17:16:00
12:51 PM,19.9,10.9,68,30.34,7.0,NW,9.2,-,N/A,Snow,Light Snow,310,2013-02-21 17:51:00
1:51 PM,19.9,10.9,68,30.34,9.0,NW,5.8,-,0.00,Snow,Light Snow,320,2013-02-21 18:51:00
2:51 PM,21.0,12.0,68,30.34,9.0,NW,8.1,-,0.00,Snow,Light Snow,320,2013-02-21 19:51:00
3:51 PM,21.0,12.0,68,30.32,9.0,North,8.1,-,0.00,Snow,Light Snow,10,2013-02-21 20:51:00
4:51 PM,21.0,12.0,68,30.32,10.0,NE,9.2,-,0.00,,Mostly Cloudy,50,2013-02-21 21:51:00
5:51 PM,19.9,12.0,71,30.38,10.0,NNW,3.5,-,N/A,,Overcast,330,2013-02-21 22:51:00
6:51 PM,18.0,10.9,74,30.38,10.0,NNE,4.6,-,N/A,,Mostly Cloudy,20,2013-02-21 23:51:00
7:51 PM,17.1,10.0,74,30.38,10.0,NE,4.6,-,N/A,,Scattered Clouds,40,2013-02-22 00:51:00
8:51 PM,14.0,9.0,80,30.37,10.0,ENE,4.6,-,N/A,,Mostly Cloudy,60,2013-02-22 01:51:00
9:51 PM,17.1,10.9,77,30.33,10.0,ENE,9.2,-,N/A,,Mostly Cloudy,60,2013-02-22 02:51:00
10:51 PM,17.1,10.9,77,30.33,10.0,East,4.6,-,N/A,,Overcast,80,2013-02-22 03:51:00
11:51 PM,17.1,10.9,77,30.29,10.0,East,8.1,-,N/A,,Overcast,80,2013-02-22 04:51:00